Location: Ch�tillon
(48.8024°N, 2.2935°E)
Time: 03:57:58
(UTC+00:00)

DIWATA 2B (PO-101) - Pass Details

Date: 03 July 2022
Orbit: 583 x 599 km, 98.0° (Epoch: 13 August)

Event Time Altitude Azimuth Distance (km) Brightness Sun altitude
Exits shadow 00:20:07 - 116° (ESE) 2,423 ? -18.0°
Reaches altitude 10° 00:21:39 10° 104° (ESE) 1,941 ? -18.0°
Maximum altitude 00:24:30 18° 61° (ENE) 1,492 ? -17.9°
Drops below altitude 10° 00:27:22 10° 18° (NNE) 1,951 ? -17.9°
Sets 00:30:05 0° 360° (N) 2,858 ? -17.8°
